Lid_Strength_Index
1 2 2 2 2 2 2 3 3 3 3 3 3 3 3 3 3 3 3 3 3 3 3 3 2 2 2 6 6 1 -2 -2 -1 2 3 3 4 4 5 6 6 7 7 6 6 6 6
2 2 2 2 2 3 3 3 3 3 2 3 3 3 3 3 3 3 3 3 4 3 3 3 2 2 3 8 3 -1 -1 1 2 2 3 3 3 3 5 6 6 6 6 6 6 6 6
2 2 2 2 3 3 3 2 2 2 2 3 3 3 3 3 3 3 3 4 4 3 3 3 2 1 5 6 2 -1 -0 2 2 2 3 3 2 3 4 6 5 6 8 7 7 6 7
2 2 2 2 2 2 2 2 2 2 3 3 3 3 3 3 3 3 4 4 3 3 3 2 1 1 6 3 -1 1 2 3 2 2 3 3 2 3 4 4 6 7 7 10 7 7 6
2 2 2 3 3 3 3 3 3 3 3 3 3 4 4 4 4 4 4 4 2 2 2 1 1 2 5 1 2 0 2 3 3 3 3 3 2 4 5 6 7 8 10 10 9 6 7
2 3 3 3 3 3 3 3 3 3 3 3 3 4 3 3 4 4 4 4 1 1 1 0 1 4 3 3 1 1 1 3 4 3 4 4 3 5 6 7 11 10 10 9 10 8 8
2 3 3 3 3 3 3 3 3 3 3 3 3 4 4 4 4 5 4 1 3 4 2 4 3 4 3 1 0 2 1 3 4 4 5 4 6 8 6 6 7 7 8 9 8 7 9
2 2 3 3 3 3 3 3 4 4 3 3 4 4 4 4 5 5 3 3 4 3 5 2 3 3 2 1 4 2 1 4 5 6 4 6 7 5 6 7 7 8 9 9 8 8 9
3 3 3 3 3 3 4 4 4 4 4 4 4 4 4 4 4 5 3 4 2 2 5 5 4 4 3 2 4 3 2 3 5 6 6 7 6 5 7 7 8 7 8 9 10 8 8
3 3 3 3 4 4 4 4 4 5 5 4 5 5 5 5 6 1 3 1 1 1 6 6 5 4 3 2 5 2 2 3 5 6 6 6 5 7 7 8 7 9 6 8 9 10 12
4 4 4 4 4 4 4 4 4 5 5 4 5 5 6 6 4 4 2 1 1 2 12 6 5 1 2 4 4 4 2 4 6 6 6 7 7 7 7 7 7 8 7 8 8 9 10
4 4 4 4 4 4 4 4 4 4 4 4 5 5 6 5 4 2 2 2 3 8 12 7 5 5 5 4 5 4 4 3 4 6 6 6 6 6 6 6 6 6 7 7 8 9 14
4 4 4 4 4 4 4 4 4 4 4 4 5 6 5 3 3 1 1 4 8 10 6 8 7 5 5 6 6 5 5 6 7 9 8 6 7 6 6 7 6 7 8 11 12 12 13
4 4 4 4 4 4 4 4 4 4 4 5 6 6 5 3 1 2 2 6 10 9 8 7 7 6 7 6 6 6 6 7 6 6 7 9 10 6 5 6 7 7 7 10 14 12 11
4 3 3 3 4 4 4 4 4 4 5 5 6 1 1 1 1 1 5 8 9 8 7 8 7 7 7 6 6 6 6 7 6 5 8 8 9 5 5 5 5 7 9 6 9 8 10
3 3 3 3 3 4 4 4 4 4 5 5 1 1 3 1 1 3 6 9 8 7 7 7 9 7 8 7 7 7 7 6 6 5 4 6 9 6 6 6 6 6 5 9 8 12 13
3 3 3 3 3 4 4 4 4 4 5 6 1 3 1 0 2 5 8 7 8 7 7 8 8 8 8 7 7 7 7 6 5 5 4 5 7 7 6 7 7 7 8 7 7 8 11
3 3 3 3 4 4 4 4 4 5 6 4 2 5 0 0 5 4 6 7 9 6 5 7 6 7 8 8 7 7 7 6 6 6 7 5 7 9 8 6 5 6 7 7 10 10 9
3 3 4 4 4 4 4 4 4 5 6 2 4 3 -0 1 7 6 6 6 5 6 6 6 6 7 6 8 9 8 7 5 5 6 6 6 7 10 9 7 6 7 6 6 7 7 10
4 4 4 4 4 4 4 4 4 5 5 2 4 6 3 2 3 6 7 7 7 5 6 6 6 5 6 7 7 8 8 6 5 5 3 5 7 8 10 9 7 8 7 6 7 9 9
4 4 4 4 4 4 3 4 4 5 5 2 3 6 5 6 6 5 6 7 8 8 6 5 7 7 7 8 7 7 7 6 5 4 5 5 8 7 7 7 7 7 7 7 7 7 9
4 4 5 4 4 4 4 4 4 5 6 2 5 5 3 4 6 7 7 7 8 7 7 7 8 7 7 8 8 8 7 7 7 6 6 6 8 7 9 7 7 8 7 7 7 7 7
5 5 5 5 5 4 3 4 4 5 5 4 3 2 4 8 6 7 6 7 8 7 6 6 6 7 7 7 5 5 5 5 5 7 7 7 8 9 11 8 8 10 8 7 7 6 6
5 5 5 5 5 4 4 4 4 5 5 3 3 3 5 6 6 6 7 7 7 6 7 6 5 6 5 3 3 4 4 5 5 5 5 7 8 8 11 9 14 8 5 6 6 6 5
5 5 5 5 5 5 4 4 4 5 5 3 3 4 5 7 6 7 7 7 6 5 6 6 5 4 3 4 7 9 8 8 7 6 6 5 7 10 11 11 9 7 6 7 7 7 5
5 6 6 6 5 5 5 4 4 5 5 3 3 3 4 7 6 6 7 6 7 7 6 6 4 3 3 6 7 11 12 9 10 8 5 5 6 9 10 12 13 8 6 5 5 10 5
5 6 6 6 6 5 4 4 4 4 5 4 3 2 4 7 4 5 6 7 5 6 7 6 5 5 4 7 9 10 10 7 11 10 9 9 9 10 10 11 9 5 6 5 10 9 5
5 6 6 6 6 6 5 4 4 5 5 4 3 3 5 6 5 5 5 5 5 5 8 5 6 6 6 9 9 9 9 8 9 8 9 9 10 10 10 11 13 5 6 8 7 5 5
5 6 6 6 6 6 5 4 5 5 5 5 4 3 3 6 5 3 3 3 3 3 4 4 6 6 5 8 7 8 9 8 9 11 6 10 8 10 8 9 6 5 5 4 4 5 5